Voltar ao catálogo

STARLINK-5815

AtivoComunicaçõesVLEO
NORAD 55789·PAYLOAD·🇺🇸 United States

Lançado Mar 3, 2023 de Vandenberg Space Force Base

Loading…

Próximas Passagens (próximas 24 horas)

TLE

AtualizadoSource: CelesTrak SupGP

Época: Sep 14, 2026, 21:13 UTC

1 55789C 23028BA  26257.88451389  .00022008  00000+0  18442-2 0  2576
2 55789  70.0003  87.3811 0002286 269.2046 208.4945 14.98325204    12

Acompanhe STARLINK-5815 em tempo real com AllMySat

Download on the App Store